• In Czech Republic
  • List of Countries
  • For 7 days
  • Water Temperature
  • Satellite Maps
  • Weather Map
  • Weather Widgets
  • user-avatar
    Login

    Hourly Weather Vatican

    Today, 21 October, Saturday

    Time Temperature Precipitation Wind Pressure Humidity
    00:00 +19°C° 0 mm 1 mps 764 mmHg 67%
    01:00 +18°C° 0 mm 2 mps 763 mmHg 67%
    02:00 +18°C° 0 mm 2 mps 763 mmHg 66%
    03:00 +17°C° 0 mm 2 mps 763 mmHg 65%
    04:00 +17°C° 0 mm 2 mps 763 mmHg 63%
    05:00 +17°C° 0 mm 2 mps 764 mmHg 62%
    06:00 +17°C° 0 mm 2 mps 764 mmHg 61%
    07:00 +17°C° 0 mm 2 mps 764 mmHg 60%
    08:00 +19°C° 0 mm 2 mps 764 mmHg 53%
    09:00 +22°C° 0 mm 1 mps 764 mmHg 46%
    10:00 +24°C° 0 mm 1 mps 764 mmHg 40%
    11:00 +25°C° 0 mm 1 mps 764 mmHg 39%
    12:00 +25°C° 0 mm 2 mps 764 mmHg 38%
    13:00 +26°C° 0 mm 2 mps 763 mmHg 38%
    14:00 +26°C° 0 mm 3 mps 763 mmHg 42%
    15:00 +25°C° 0 mm 3 mps 763 mmHg 46%
    16:00 +25°C° 0 mm 3 mps 763 mmHg 50%
    17:00 +22°C° 0 mm 3 mps 763 mmHg 57%
    18:00 +21°C° 0 mm 3 mps 763 mmHg 65%
    19:00 +20°C° 0 mm 2 mps 763 mmHg 72%
    20:00 +20°C° 0 mm 2 mps 763 mmHg 73%
    21:00 +19°C° 0 mm 2 mps 763 mmHg 75%
    22:00 +19°C° 0 mm 2 mps 763 mmHg 77%
    23:00 +19°C° 0 mm 2 mps 763 mmHg 78%

    Tomorrow, 22 October, Sunday

    Time Temperature Precipitation Wind Pressure Humidity
    00:00 +19°C° 0 mm 2 mps 763 mmHg 79%
    01:00 +18°C° 0 mm 2 mps 763 mmHg 79%
    02:00 +18°C° 0.1 mm 2 mps 763 mmHg 79%
    03:00 +18°C° 0.1 mm 2 mps 762 mmHg 79%
    04:00 +18°C° 0.1 mm 3 mps 762 mmHg 79%
    05:00 +18°C° 0.1 mm 3 mps 762 mmHg 79%
    06:00 +19°C° 0.1 mm 3 mps 761 mmHg 79%
    07:00 +19°C° 0.1 mm 3 mps 761 mmHg 78%
    08:00 +20°C° 0.4 mm 4 mps 761 mmHg 77%
    09:00 +21°C° 0.4 mm 4 mps 761 mmHg 76%
    10:00 +22°C° 0.4 mm 4 mps 761 mmHg 74%
    11:00 +22°C° 0.6 mm 5 mps 761 mmHg 74%
    12:00 +22°C° 0.6 mm 5 mps 760 mmHg 75%
    13:00 +22°C° 0.6 mm 6 mps 760 mmHg 75%
    14:00 +22°C° 0.1 mm 7 mps 759 mmHg 71%
    15:00 +22°C° 0.1 mm 8 mps 759 mmHg 67%
    16:00 +22°C° 0.1 mm 9 mps 758 mmHg 63%
    17:00 +21°C° 0 mm 9 mps 758 mmHg 63%
    18:00 +19°C° 0 mm 9 mps 758 mmHg 64%
    19:00 +18°C° 0 mm 9 mps 757 mmHg 64%
    20:00 +18°C° 0 mm 8 mps 757 mmHg 66%
    21:00 +17°C° 0 mm 7 mps 757 mmHg 67%
    22:00 +17°C° 0 mm 6 mps 757 mmHg 68%
    23:00 +17°C° 0 mm 6 mps 757 mmHg 67%

    Day after tomorrow, 23 October, Monday

    Time Temperature Precipitation Wind Pressure Humidity
    00:00 +17°C° 0 mm 6 mps 756 mmHg 65%
    01:00 +17°C° 0 mm 7 mps 756 mmHg 64%
    02:00 +16°C° 0 mm 7 mps 756 mmHg 64%
    03:00 +16°C° 0 mm 7 mps 756 mmHg 65%
    04:00 +16°C° 0 mm 7 mps 755 mmHg 66%
    05:00 +15°C° 0 mm 8 mps 756 mmHg 67%
    06:00 +13°C° 0 mm 9 mps 756 mmHg 69%
    07:00 +13°C° 0 mm 9 mps 756 mmHg 71%
    08:00 +14°C° 0 mm 10 mps 756 mmHg 66%
    09:00 +16°C° 0 mm 10 mps 757 mmHg 61%
    10:00 +16°C° 0 mm 11 mps 757 mmHg 56%
    11:00 +17°C° 0 mm 10 mps 757 mmHg 50%
    12:00 +18°C° 0 mm 10 mps 757 mmHg 45%
    13:00 +19°C° 0 mm 9 mps 757 mmHg 40%
    14:00 +19°C° 0 mm 9 mps 757 mmHg 40%
    15:00 +19°C° 0 mm 9 mps 758 mmHg 40%
    16:00 +19°C° 0 mm 9 mps 758 mmHg 41%
    17:00 +18°C° 0 mm 8 mps 758 mmHg 42%
    18:00 +17°C° 0 mm 8 mps 759 mmHg 43%
    19:00 +16°C° 0 mm 7 mps 759 mmHg 44%
    20:00 +15°C° 0 mm 7 mps 760 mmHg 45%
    21:00 +15°C° 0 mm 7 mps 760 mmHg 46%
    22:00 +14°C° 0 mm 7 mps 760 mmHg 47%
    23:00 +14°C° 0 mm 7 mps 760 mmHg 47%

    24 October, Tuesday

    Time Temperature Precipitation Wind Pressure Humidity
    00:00 +14°C° 0 mm 7 mps 760 mmHg 47%
    01:00 +12°C° 0 mm 7 mps 760 mmHg 47%
    02:00 +12°C° 0 mm 7 mps 760 mmHg 47%
    03:00 +12°C° 0 mm 7 mps 760 mmHg 47%
    04:00 +12°C° 0 mm 7 mps 760 mmHg 47%
    05:00 +13°C° 0 mm 6 mps 760 mmHg 47%
    06:00 +13°C° 0 mm 6 mps 761 mmHg 48%
    07:00 +13°C° 0 mm 6 mps 761 mmHg 48%
    08:00 +15°C° 0 mm 6 mps 761 mmHg 43%
    09:00 +17°C° 0 mm 6 mps 761 mmHg 39%
    10:00 +20°C° 0 mm 6 mps 761 mmHg 34%
    11:00 +20°C° 0 mm 6 mps 761 mmHg 32%
    12:00 +21°C° 0 mm 7 mps 761 mmHg 31%
    13:00 +22°C° 0 mm 7 mps 761 mmHg 30%
    14:00 +22°C° 0 mm 7 mps 761 mmHg 31%
    15:00 +21°C° 0 mm 7 mps 761 mmHg 33%
    16:00 +21°C° 0 mm 7 mps 761 mmHg 35%
    17:00 +20°C° 0 mm 8 mps 761 mmHg 37%
    18:00 +18°C° 0 mm 8 mps 762 mmHg 40%
    19:00 +16°C° 0 mm 9 mps 762 mmHg 42%
    20:00 +16°C° 0 mm 9 mps 762 mmHg 46%
    21:00 +16°C° 0 mm 9 mps 763 mmHg 49%
    22:00 +14°C° 0 mm 10 mps 763 mmHg 53%
    23:00 +14°C° 0 mm 10 mps 763 mmHg 54%

    25 October, Wednesday

    Time Temperature Precipitation Wind Pressure Humidity
    00:00 +14°C° 0 mm 10 mps 763 mmHg 55%
    01:00 +14°C° 0 mm 10 mps 763 mmHg 56%
    02:00 +13°C° 0 mm 10 mps 763 mmHg 57%
    03:00 +13°C° 0 mm 9 mps 763 mmHg 58%
    04:00 +13°C° 0 mm 9 mps 763 mmHg 59%
    05:00 +13°C° 0 mm 9 mps 763 mmHg 60%
    06:00 +13°C° 0 mm 9 mps 763 mmHg 61%
    07:00 +13°C° 0 mm 9 mps 763 mmHg 62%
    08:00 +15°C° 0 mm 8 mps 764 mmHg 57%
    09:00 +17°C° 0 mm 8 mps 764 mmHg 53%
    10:00 +18°C° 0 mm 7 mps 764 mmHg 48%
    11:00 +20°C° 0 mm 7 mps 764 mmHg 45%
    12:00 +21°C° 0 mm 6 mps 764 mmHg 42%
    13:00 +22°C° 0 mm 6 mps 764 mmHg 39%
    14:00 +22°C° 0 mm 6 mps 765 mmHg 39%
    15:00 +22°C° 0 mm 6 mps 765 mmHg 39%
    16:00 +22°C° 0 mm 6 mps 765 mmHg 38%
    17:00 +21°C° 0 mm 6 mps 765 mmHg 41%
    18:00 +19°C° 0 mm 6 mps 766 mmHg 44%
    19:00 +17°C° 0 mm 6 mps 766 mmHg 47%
    20:00 +16°C° 0 mm 6 mps 766 mmHg 49%
    21:00 +16°C° 0 mm 5 mps 767 mmHg 50%
    22:00 +15°C° 0 mm 5 mps 767 mmHg 51%
    23:00 +15°C° 0 mm 5 mps 767 mmHg 50%

    26 October, Thursday

    Time Temperature Precipitation Wind Pressure Humidity
    00:00 +14°C° 0 mm 4 mps 767 mmHg 50%
    01:00 +14°C° 0 mm 4 mps 767 mmHg 50%
    02:00 +14°C° 0 mm 4 mps 767 mmHg 50%
    03:00 +13°C° 0 mm 3 mps 767 mmHg 50%
    04:00 +13°C° 0 mm 3 mps 767 mmHg 50%
    05:00 +13°C° 0 mm 3 mps 767 mmHg 50%
    06:00 +13°C° 0 mm 3 mps 767 mmHg 50%
    07:00 +13°C° 0 mm 3 mps 768 mmHg 50%
    08:00 +16°C° 0 mm 2 mps 768 mmHg 44%
    09:00 +18°C° 0 mm 2 mps 768 mmHg 39%
    10:00 +21°C° 0 mm 1 mps 768 mmHg 34%
    11:00 +22°C° 0 mm 1 mps 768 mmHg 33%
    12:00 +23°C° 0 mm 1 mps 768 mmHg 33%
    13:00 +24°C° 0 mm 1 mps 768 mmHg 32%
    14:00 +23°C° 0 mm 2 mps 767 mmHg 35%
    15:00 +23°C° 0 mm 2 mps 767 mmHg 38%
    16:00 +23°C° 0 mm 2 mps 767 mmHg 41%
    17:00 +20°C° 0 mm 2 mps 767 mmHg 46%
    18:00 +19°C° 0 mm 2 mps 768 mmHg 50%
    19:00 +18°C° 0 mm 2 mps 768 mmHg 55%
    20:00 +17°C° 0 mm 2 mps 768 mmHg 55%
    21:00 +17°C° 0 mm 2 mps 768 mmHg 56%
    22:00 +18°C° 0 mm 1 mps 768 mmHg 56%
    23:00 +17°C° 0 mm 2 mps 768 mmHg 57%
    Show more